| time (UTC) | temp C | wind direction | speed KPH | gust KPH | rain 1hr cm | rain 24hr cm | rain mn cm | humidity % | barometer mb |
| 20260507110322 | 11 | 8 | 9.7 | 16.1 | 0.00 | 0.00 | 0.00 | 76 | 1020.4 |
| 20260507105559 | 11 | 5 | 8.0 | 16.1 | 0.00 | 0.00 | 0.00 | 76 | 1020.3 |
| 20260507105059 | 11 | 30 | 8.0 | 14.5 | 0.00 | 0.00 | 0.00 | 76 | 1020.4 |
| 20260507104559 | 11 | 17 | 9.7 | 22.5 | 0.00 | 0.00 | 0.00 | 76 | 1020.4 |
| 20260507104059 | 11 | 307 | 9.7 | 22.5 | 0.00 | 0.00 | 0.00 | 76 | 1020.4 |
| 20260507103559 | 11 | 297 | 8.0 | 16.1 | 0.00 | 0.00 | 0.00 | 76 | 1020.5 |
| 20260507103059 | 11 | 357 | 6.4 | 14.5 | 0.00 | 0.00 | 0.00 | 76 | 1020.5 |
| 20260507102559 | 11 | 16 | 8.0 | 14.5 | 0.00 | 0.00 | 0.00 | 76 | 1020.5 |
| 20260507102549 | 11 | 12 | 8.0 | 14.5 | 0.00 | 0.00 | 0.00 | 76 | 1020.5 |
| 20260507101820 | 11 | 9 | 6.4 | 14.5 | 0.00 | 0.00 | 0.00 | 76 | 1020.6 |
| 20260507101058 | 11 | 12 | 6.4 | 14.5 | 0.00 | 0.00 | 0.00 | 76 | 1020.6 |
| 20260507100557 | 11 | 12 | 6.4 | 14.5 | 0.00 | 0.00 | 0.00 | 77 | 1020.6 |
| 20260507100324 | 11 | 5 | 6.4 | 14.5 | 0.00 | 0.00 | 0.00 | 77 | 1020.6 |
| 20260507095817 | 11 | 357 | 6.4 | 9.7 | 0.00 | 0.00 | 0.00 | 77 | 1020.7 |
| 20260507095057 | 11 | 8 | 6.4 | 14.5 | 0.00 | 0.00 | 0.00 | 77 | 1020.7 |
| 20260507094557 | 11 | 313 | 6.4 | 14.5 | 0.00 | 0.00 | 0.00 | 77 | 1020.7 |
| 20260507094320 | 12 | 4 | 4.8 | 14.5 | 0.00 | 0.00 | 0.00 | 77 | 1020.7 |
| 20260507093557 | 12 | 326 | 4.8 | 8.0 | 0.00 | 0.00 | 0.00 | 78 | 1020.8 |
| 20260507093057 | 12 | 6 | 6.4 | 14.5 | 0.00 | 0.00 | 0.00 | 77 | 1020.8 |
| 20260507092823 | 12 | 351 | 6.4 | 14.5 | 0.00 | 0.00 | 0.00 | 77 | 1020.8 |
| 20260507092057 | 12 | 309 | 6.4 | 14.5 | 0.00 | 0.00 | 0.00 | 77 | 1020.9 |
| 20260507091557 | 12 | 343 | 6.4 | 14.5 | 0.00 | 0.00 | 0.00 | 77 | 1020.9 |
| 20260507091055 | 12 | 310 | 8.0 | 14.5 | 0.00 | 0.00 | 0.00 | 77 | 1020.9 |
| 20260507090552 | 12 | 336 | 8.0 | 16.1 | 0.00 | 0.00 | 0.00 | 77 | 1020.9 |
| 20260507090052 | 12 | 313 | 6.4 | 16.1 | 0.00 | 0.00 | 0.00 | 76 | 1020.9 |
| 20260507090040 | 12 | 359 | 8.0 | 16.1 | 0.00 | 0.00 | 0.00 | 76 | 1020.9 |
| 20260507085052 | 12 | 308 | 8.0 | 16.1 | 0.00 | 0.00 | 0.00 | 76 | 1020.9 |
| 20260507084552 | 12 | 309 | 6.4 | 11.3 | 0.00 | 0.00 | 0.00 | 76 | 1020.9 |
| 20260507084052 | 12 | 329 | 6.4 | 14.5 | 0.00 | 0.00 | 0.00 | 75 | 1020.9 |
| 20260507083816 | 12 | 318 | 6.4 | 14.5 | 0.00 | 0.00 | 0.00 | 75 | 1020.9 |
| 20260507083052 | 12 | 336 | 6.4 | 11.3 | 0.00 | 0.00 | 0.00 | 75 | 1020.9 |
| 20260507082554 | 12 | 6 | 6.4 | 12.9 | 0.00 | 0.00 | 0.00 | 75 | 1021.0 |
| 20260507082052 | 12 | 335 | 8.0 | 14.5 | 0.00 | 0.00 | 0.00 | 75 | 1021.0 |
| 20260507081552 | 12 | 339 | 6.4 | 14.5 | 0.00 | 0.00 | 0.00 | 75 | 1021.0 |
| 20260507081052 | 12 | 324 | 6.4 | 14.5 | 0.00 | 0.00 | 0.00 | 75 | 1020.9 |
| 20260507080815 | 12 | 324 | 6.4 | 12.9 | 0.00 | 0.00 | 0.00 | 76 | 1020.9 |
| 20260507080053 | 12 | 330 | 6.4 | 14.5 | 0.00 | 0.00 | 0.00 | 76 | 1020.9 |
| 20260507075812 | 12 | 303 | 6.4 | 14.5 | 0.00 | 0.00 | 0.00 | 76 | 1020.9 |
| 20260507075046 | 12 | 310 | 6.4 | 9.7 | 0.00 | 0.00 | 0.00 | 77 | 1021.0 |
| 20260507074547 | 12 | 336 | 6.4 | 14.5 | 0.00 | 0.00 | 0.00 | 78 | 1021.0 |
| 20260507074047 | 12 | 312 | 6.4 | 14.5 | 0.00 | 0.00 | 0.00 | 77 | 1021.0 |
| 20260507073546 | 12 | 304 | 8.0 | 14.5 | 0.00 | 0.00 | 0.00 | 78 | 1020.9 |
| 20260507073046 | 12 | 7 | 8.0 | 14.5 | 0.00 | 0.00 | 0.00 | 78 | 1020.9 |
| 20260507072547 | 12 | 332 | 6.4 | 12.9 | 0.00 | 0.00 | 0.00 | 78 | 1020.9 |
| 20260507072047 | 12 | 355 | 6.4 | 14.5 | 0.00 | 0.00 | 0.00 | 78 | 1020.9 |
| 20260507071808 | 12 | 322 | 6.4 | 14.5 | 0.00 | 0.00 | 0.00 | 78 | 1020.8 |
| 20260507071047 | 12 | 342 | 6.4 | 14.5 | 0.00 | 0.00 | 0.00 | 78 | 1020.8 |
| 20260507070547 | 12 | 337 | 6.4 | 14.5 | 0.00 | 0.00 | 0.00 | 78 | 1020.7 |
| 20260507070047 | 12 | 344 | 8.0 | 14.5 | 0.00 | 0.00 | 0.00 | 78 | 1020.8 |
| 20260507065809 | 12 | 345 | 8.0 | 14.5 | 0.00 | 0.00 | 0.00 | 78 | 1020.7 |
| 20260507065046 | 12 | 333 | 6.4 | 14.5 | 0.00 | 0.00 | 0.00 | 78 | 1020.8 |
| 20260507064810 | 12 | 328 | 6.4 | 14.5 | 0.00 | 0.00 | 0.00 | 78 | 1020.8 |
| 20260507064308 | 12 | 292 | 8.0 | 14.5 | 0.00 | 0.00 | 0.00 | 78 | 1020.8 |
| 20260507063546 | 12 | 324 | 8.0 | 14.5 | 0.00 | 0.00 | 0.00 | 78 | 1020.8 |
| 20260507063045 | 12 | 326 | 6.4 | 12.9 | 0.00 | 0.00 | 0.00 | 78 | 1020.8 |
| 20260507062546 | 12 | 340 | 6.4 | 12.9 | 0.00 | 0.00 | 0.00 | 78 | 1020.8 |
| 20260507062046 | 12 | 296 | 6.4 | 12.9 | 0.00 | 0.00 | 0.00 | 78 | 1020.9 |
| 20260507061546 | 12 | 355 | 6.4 | 12.9 | 0.00 | 0.00 | 0.00 | 78 | 1020.9 |
| 20260507061045 | 12 | 359 | 6.4 | 14.5 | 0.00 | 0.00 | 0.00 | 78 | 1020.9 |
| 20260507060750 | 12 | 332 | 8.0 | 14.5 | 0.00 | 0.00 | 0.00 | 78 | 1020.8 |
| 20260507055546 | 12 | 326 | 8.0 | 16.1 | 0.00 | 0.00 | 0.00 | 78 | 1020.8 |
| 20260507055046 | 12 | 347 | 9.7 | 19.3 | 0.00 | 0.00 | 0.00 | 78 | 1020.8 |
| 20260507054545 | 12 | 3 | 9.7 | 19.3 | 0.00 | 0.00 | 0.00 | 78 | 1020.9 |
| 20260507054531 | 12 | 336 | 8.0 | 16.1 | 0.00 | 0.00 | 0.00 | 78 | 1020.9 |
| 20260507053545 | 12 | 313 | 8.0 | 14.5 | 0.00 | 0.00 | 0.00 | 78 | 1020.9 |
| 20260507053046 | 12 | 296 | 8.0 | 14.5 | 0.00 | 0.00 | 0.00 | 78 | 1020.8 |
| 20260507052810 | 12 | 333 | 8.0 | 17.7 | 0.00 | 0.00 | 0.00 | 78 | 1020.8 |
| 20260507052046 | 13 | 331 | 9.7 | 17.7 | 0.00 | 0.00 | 0.00 | 77 | 1020.8 |
| 20260507051546 | 13 | 339 | 9.7 | 19.3 | 0.00 | 0.00 | 0.00 | 77 | 1020.8 |
| 20260507051045 | 13 | 324 | 9.7 | 19.3 | 0.00 | 0.00 | 0.00 | 76 | 1020.8 |
| 20260507050546 | 13 | 335 | 8.0 | 14.5 | 0.00 | 0.00 | 0.00 | 77 | 1020.8 |
| 20260507050046 | 13 | 340 | 9.7 | 16.1 | 0.00 | 0.00 | 0.00 | 76 | 1020.9 |
| 20260507045546 | 13 | 358 | 11.3 | 19.3 | 0.00 | 0.00 | 0.00 | 76 | 1020.9 |
| 20260507045045 | 13 | 6 | 11.3 | 19.3 | 0.00 | 0.00 | 0.00 | 76 | 1020.9 |
| 20260507044808 | 13 | 342 | 9.7 | 19.3 | 0.00 | 0.00 | 0.00 | 76 | 1020.9 |
| 20260507044046 | 13 | 358 | 9.7 | 19.3 | 0.00 | 0.00 | 0.00 | 76 | 1020.9 |
| 20260507043545 | 13 | 358 | 9.7 | 19.3 | 0.00 | 0.00 | 0.00 | 76 | 1020.8 |
| 20260507043046 | 13 | 318 | 9.7 | 19.3 | 0.00 | 0.00 | 0.00 | 76 | 1020.8 |
| 20260507042545 | 13 | 348 | 9.7 | 17.7 | 0.00 | 0.00 | 0.00 | 76 | 1020.7 |
| 20260507042046 | 13 | 326 | 9.7 | 17.7 | 0.00 | 0.00 | 0.00 | 75 | 1020.6 |
| 20260507041546 | 13 | 356 | 11.3 | 22.5 | 0.00 | 0.00 | 0.00 | 75 | 1020.7 |
| 20260507041313 | 13 | 333 | 12.9 | 22.5 | 0.00 | 0.00 | 0.00 | 75 | 1020.6 |
| 20260507040546 | 13 | 340 | 11.3 | 20.9 | 0.00 | 0.00 | 0.00 | 75 | 1020.6 |
| 20260507040046 | 14 | 330 | 11.3 | 20.9 | 0.00 | 0.00 | 0.00 | 75 | 1020.5 |
| 20260507035546 | 14 | 339 | 9.7 | 20.9 | 0.00 | 0.00 | 0.00 | 75 | 1020.4 |
| 20260507035045 | 14 | 337 | 8.0 | 19.3 | 0.00 | 0.00 | 0.00 | 75 | 1020.4 |
| 20260507034545 | 14 | 15 | 9.7 | 19.3 | 0.00 | 0.00 | 0.00 | 75 | 1020.3 |
| 20260507034046 | 14 | 340 | 9.7 | 19.3 | 0.00 | 0.00 | 0.00 | 75 | 1020.2 |
| 20260507033546 | 14 | 322 | 9.7 | 20.9 | 0.00 | 0.00 | 0.00 | 75 | 1020.2 |
| 20260507033045 | 14 | 15 | 9.7 | 20.9 | 0.00 | 0.00 | 0.00 | 75 | 1020.1 |
| 20260507032548 | 15 | 339 | 8.0 | 16.1 | 0.00 | 0.00 | 0.00 | 75 | 1020.0 |
| 20260507032049 | 15 | 318 | 9.7 | 17.7 | 0.00 | 0.00 | 0.00 | 75 | 1020.0 |
| 20260507031548 | 15 | 8 | 11.3 | 20.9 | 0.00 | 0.00 | 0.00 | 74 | 1019.9 |
| 20260507031048 | 15 | 12 | 11.3 | 20.9 | 0.00 | 0.00 | 0.00 | 74 | 1019.8 |
| 20260507030812 | 15 | 2 | 9.7 | 20.9 | 0.00 | 0.00 | 0.00 | 74 | 1019.8 |
| 20260507030047 | 15 | 329 | 8.0 | 16.1 | 0.00 | 0.00 | 0.00 | 74 | 1019.7 |
| 20260507025547 | 15 | 0 | 9.7 | 19.3 | 0.00 | 0.00 | 0.00 | 74 | 1019.6 |
| 20260507025047 | 15 | 346 | 9.7 | 19.3 | 0.00 | 0.00 | 0.00 | 74 | 1019.6 |
| 20260507024547 | 15 | 338 | 9.7 | 16.1 | 0.00 | 0.00 | 0.00 | 73 | 1019.6 |
| 20260507024319 | 15 | 337 | 9.7 | 19.3 | 0.00 | 0.00 | 0.00 | 74 | 1019.5 |
| 20260507023547 | 15 | 341 | 9.7 | 19.3 | 0.00 | 0.00 | 0.00 | 73 | 1019.5 |
| 20260507023048 | 16 | 350 | 9.7 | 17.7 | 0.00 | 0.00 | 0.00 | 73 | 1019.5 |
| 20260507022547 | 16 | 350 | 11.3 | 17.7 | 0.00 | 0.00 | 0.00 | 73 | 1019.4 |
| 20260507022047 | 16 | 346 | 11.3 | 19.3 | 0.00 | 0.00 | 0.00 | 73 | 1019.4 |
| 20260507021547 | 16 | 3 | 11.3 | 19.3 | 0.00 | 0.00 | 0.00 | 72 | 1019.5 |
| 20260507021313 | 16 | 331 | 9.7 | 19.3 | 0.00 | 0.00 | 0.00 | 71 | 1019.5 |
| 20260507020547 | 16 | 323 | 9.7 | 19.3 | 0.00 | 0.00 | 0.00 | 70 | 1019.5 |
| 20260507020046 | 17 | 317 | 8.0 | 19.3 | 0.00 | 0.00 | 0.00 | 70 | 1019.5 |
| 20260507020033 | 17 | 0 | 8.0 | 16.1 | 0.00 | 0.00 | 0.00 | 70 | 1019.6 |
| 20260507015307 | 17 | 340 | 9.7 | 20.9 | 0.00 | 0.00 | 0.00 | 69 | 1019.6 |
| 20260507014544 | 17 | 322 | 11.3 | 20.9 | 0.00 | 0.00 | 0.00 | 69 | 1019.6 |
| 20260507014045 | 17 | 345 | 9.7 | 17.7 | 0.00 | 0.00 | 0.00 | 68 | 1019.6 |
| 20260507013545 | 17 | 329 | 9.7 | 22.5 | 0.00 | 0.00 | 0.00 | 68 | 1019.6 |
| 20260507013312 | 17 | 320 | 9.7 | 22.5 | 0.00 | 0.00 | 0.00 | 68 | 1019.6 |
| 20260507012545 | 17 | 339 | 9.7 | 17.7 | 0.00 | 0.00 | 0.00 | 68 | 1019.6 |
| 20260507012307 | 18 | 357 | 9.7 | 17.7 | 0.00 | 0.00 | 0.00 | 68 | 1019.5 |
| 20260507011546 | 18 | 320 | 9.7 | 16.1 | 0.00 | 0.00 | 0.00 | 68 | 1019.5 |
| 20260507011309 | 18 | 317 | 9.7 | 14.5 | 0.00 | 0.00 | 0.00 | 67 | 1019.5 |
| 20260507010546 | 18 | 31 | 9.7 | 17.7 | 0.00 | 0.00 | 0.00 | 68 | 1019.5 |
| 20260507010046 | 18 | 293 | 9.7 | 17.7 | 0.00 | 0.00 | 0.00 | 68 | 1019.5 |
| 20260507005546 | 18 | 305 | 9.7 | 17.7 | 0.00 | 0.00 | 0.00 | 67 | 1019.5 |
| 20260507005046 | 18 | 326 | 9.7 | 17.7 | 0.00 | 0.00 | 0.00 | 68 | 1019.4 |
| 20260507004811 | 18 | 15 | 9.7 | 17.7 | 0.00 | 0.00 | 0.00 | 69 | 1019.4 |
| 20260507004046 | 18 | 323 | 9.7 | 14.5 | 0.00 | 0.00 | 0.00 | 69 | 1019.4 |
| 20260507003546 | 18 | 313 | 9.7 | 14.5 | 0.00 | 0.00 | 0.00 | 70 | 1019.4 |
| 20260507003309 | 18 | 352 | 8.0 | 11.3 | 0.00 | 0.00 | 0.00 | 70 | 1019.4 |
| 20260507002546 | 18 | 45 | 6.4 | 12.9 | 0.00 | 0.00 | 0.00 | 70 | 1019.3 |
| 20260507002045 | 18 | 353 | 6.4 | 14.5 | 0.00 | 0.00 | 0.00 | 70 | 1019.4 |
| 20260507001806 | 18 | 45 | 8.0 | 16.1 | 0.00 | 0.00 | 0.00 | 70 | 1019.4 |
| 20260507001046 | 18 | 36 | 8.0 | 16.1 | 0.00 | 0.00 | 0.00 | 69 | 1019.3 |
| 20260507000547 | 18 | 25 | 8.0 | 16.1 | 0.00 | 0.00 | 0.00 | 69 | 1019.3 |
| 20260507000047 | 18 | 359 | 8.0 | 16.1 | 0.00 | 0.00 | 0.00 | 68 | 1019.3 |
| 20260506235546 | 18 | 344 | 9.7 | 17.7 | 0.00 | 0.00 | 0.00 | 68 | 1019.3 |
| 20260506235046 | 18 | 35 | 9.7 | 17.7 | 0.00 | 0.00 | 0.00 | 68 | 1019.3 |
| 20260506234546 | 19 | 321 | 8.0 | 14.5 | 0.00 | 0.00 | 0.00 | 66 | 1019.3 |
| 20260506234046 | 19 | 331 | 8.0 | 14.5 | 0.00 | 0.00 | 0.00 | 66 | 1019.3 |
| 20260506233546 | 19 | 37 | 8.0 | 16.1 | 0.00 | 0.00 | 0.00 | 66 | 1019.3 |
| 20260506233045 | 19 | 22 | 6.4 | 16.1 | 0.00 | 0.00 | 0.00 | 66 | 1019.3 |
| 20260506232546 | 19 | 10 | 6.4 | 11.3 | 0.00 | 0.00 | 0.00 | 66 | 1019.4 |
| 20260506232045 | 18 | 320 | 6.4 | 11.3 | 0.00 | 0.00 | 0.00 | 65 | 1019.4 |
| 20260506231809 | 18 | 348 | 6.4 | 16.1 | 0.00 | 0.00 | 0.00 | 66 | 1019.4 |
| 20260506231045 | 18 | 0 | 8.0 | 16.1 | 0.00 | 0.00 | 0.00 | 67 | 1019.4 |
| 20260506230814 | 19 | 18 | 6.4 | 12.9 | 0.00 | 0.00 | 0.00 | 66 | 1019.5 |
| 20260506230045 | 19 | 343 | 6.4 | 9.7 | 0.00 | 0.00 | 0.00 | 66 | 1019.5 |
| 20260506225805 | 19 | 308 | 4.8 | 9.7 | 0.00 | 0.00 | 0.00 | 65 | 1019.6 |
| 20260506225045 | 19 | 342 | 4.8 | 11.3 | 0.00 | 0.00 | 0.00 | 65 | 1019.6 |
| 20260506224545 | 19 | 351 | 4.8 | 11.3 | 0.00 | 0.00 | 0.00 | 65 | 1019.7 |
| 20260506224045 | 19 | 9 | 3.2 | 6.4 | 0.00 | 0.00 | 0.00 | 66 | 1019.7 |
| 20260506223546 | 19 | 101 | 3.2 | 8.0 | 0.00 | 0.00 | 0.00 | 64 | 1019.8 |
| 20260506223045 | 18 | 282 | 3.2 | 9.7 | 0.00 | 0.00 | 0.00 | 65 | 1019.9 |
| 20260506222545 | 18 | 314 | 4.8 | 9.7 | 0.00 | 0.00 | 0.00 | 67 | 1019.9 |
| 20260506222044 | 18 | 34 | 6.4 | 11.3 | 0.00 | 0.00 | 0.00 | 68 | 1019.9 |
| 20260506221809 | 18 | 46 | 6.4 | 11.3 | 0.00 | 0.00 | 0.00 | 68 | 1019.9 |
| 20260506221044 | 18 | 349 | 3.2 | 11.3 | 0.00 | 0.00 | 0.00 | 68 | 1020.0 |
| 20260506220543 | 18 | 0 | 3.2 | 6.4 | 0.00 | 0.00 | 0.00 | 65 | 1020.0 |
| 20260506220044 | 18 | 316 | 3.2 | 8.0 | 0.00 | 0.00 | 0.00 | 66 | 1020.0 |
| 20260506215545 | 18 | 332 | 4.8 | 9.7 | 0.00 | 0.00 | 0.00 | 65 | 1019.9 |
| 20260506215045 | 19 | 350 | 4.8 | 9.7 | 0.00 | 0.00 | 0.00 | 65 | 1019.9 |
| 20260506214544 | 19 | 269 | 4.8 | 9.7 | 0.00 | 0.00 | 0.00 | 66 | 1019.9 |
| 20260506214044 | 19 | 16 | 3.2 | 14.5 | 0.00 | 0.00 | 0.00 | 66 | 1020.0 |
| 20260506213543 | 18 | 289 | 4.8 | 14.5 | 0.00 | 0.00 | 0.00 | 67 | 1020.0 |
| 20260506213043 | 18 | 301 | 3.2 | 9.7 | 0.00 | 0.00 | 0.00 | 68 | 1020.1 |
| 20260506212810 | 17 | 292 | 3.2 | 6.4 | 0.00 | 0.00 | 0.00 | 70 | 1020.2 |
| 20260506212044 | 17 | 126 | 3.2 | 6.4 | 0.00 | 0.00 | 0.00 | 73 | 1020.2 |
| 20260506211544 | 17 | 138 | 3.2 | 6.4 | 0.00 | 0.00 | 0.00 | 71 | 1020.3 |
| 20260506211043 | 17 | 1 | 3.2 | 8.0 | 0.00 | 0.00 | 0.00 | 71 | 1020.4 |
| 20260506210543 | 17 | 4 | 4.8 | 9.7 | 0.00 | 0.00 | 0.00 | 73 | 1020.4 |
| 20260506210307 | 17 | 313 | 3.2 | 9.7 | 0.00 | 0.00 | 0.00 | 73 | 1020.5 |
| 20260506205543 | 17 | 344 | 1.6 | 4.8 | 0.00 | 0.00 | 0.00 | 73 | 1020.5 |
| 20260506205042 | 17 | 78 | 3.2 | 8.0 | 0.00 | 0.00 | 0.00 | 75 | 1020.5 |
| 20260506204812 | 17 | 359 | 3.2 | 8.0 | 0.00 | 0.00 | 0.00 | 73 | 1020.4 |
| 20260506204042 | 17 | 38 | 1.6 | 6.4 | 0.00 | 0.00 | 0.00 | 74 | 1020.4 |
| 20260506203543 | 16 | 358 | 3.2 | 9.7 | 0.00 | 0.00 | 0.00 | 76 | 1020.4 |
| 20260506203043 | 16 | 38 | 4.8 | 9.7 | 0.00 | 0.00 | 0.00 | 75 | 1020.4 |
| 20260506202543 | 16 | 42 | 4.8 | 9.7 | 0.00 | 0.00 | 0.00 | 75 | 1020.4 |
| 20260506202041 | 16 | 318 | 6.4 | 12.9 | 0.00 | 0.00 | 0.00 | 76 | 1020.4 |
| 20260506201542 | 16 | 338 | 4.8 | 12.9 | 0.00 | 0.00 | 0.00 | 76 | 1020.4 |
| 20260506201042 | 16 | 338 | 4.8 | 9.7 | 0.00 | 0.00 | 0.00 | 76 | 1020.4 |
| 20260506200543 | 16 | 320 | 6.4 | 11.3 | 0.00 | 0.00 | 0.00 | 77 | 1020.5 |
| 20260506200042 | 16 | 340 | 4.8 | 11.3 | 0.00 | 0.00 | 0.00 | 77 | 1020.5 |
| 20260506195542 | 16 | 8 | 4.8 | 9.7 | 0.00 | 0.00 | 0.00 | 77 | 1020.6 |
| 20260506195043 | 16 | 14 | 6.4 | 12.9 | 0.00 | 0.00 | 0.00 | 78 | 1020.6 |
| 20260506194808 | 15 | 340 | 6.4 | 14.5 | 0.00 | 0.00 | 0.00 | 78 | 1020.8 |
| 20260506194042 | 15 | 34 | 8.0 | 14.5 | 0.00 | 0.00 | 0.00 | 79 | 1020.8 |
| 20260506194027 | 15 | 12 | 6.4 | 12.9 | 0.00 | 0.00 | 0.00 | 79 | 1020.8 |
| 20260506193042 | 15 | 342 | 6.4 | 9.7 | 0.00 | 0.00 | 0.00 | 78 | 1020.8 |
| 20260506192542 | 15 | 346 | 6.4 | 11.3 | 0.00 | 0.00 | 0.00 | 78 | 1020.7 |
| 20260506192043 | 15 | 17 | 6.4 | 11.3 | 0.00 | 0.00 | 0.00 | 78 | 1020.7 |
| 20260506191809 | 15 | 16 | 6.4 | 11.3 | 0.00 | 0.00 | 0.00 | 78 | 1020.6 |
| 20260506191042 | 15 | 25 | 4.8 | 9.7 | 0.00 | 0.00 | 0.00 | 77 | 1020.6 |
| 20260506190542 | 15 | 1 | 3.2 | 9.7 | 0.00 | 0.00 | 0.00 | 78 | 1020.6 |
| 20260506190040 | 15 | 149 | 4.8 | 11.3 | 0.00 | 0.00 | 0.00 | 77 | 1020.6 |
| 20260506185540 | 15 | 351 | 6.4 | 12.9 | 0.00 | 0.00 | 0.00 | 78 | 1020.6 |
| 20260506185040 | 15 | 13 | 6.4 | 12.9 | 0.00 | 0.00 | 0.00 | 78 | 1020.6 |
| 20260506184808 | 15 | 26 | 6.4 | 11.3 | 0.00 | 0.00 | 0.00 | 77 | 1020.6 |
| 20260506184040 | 15 | 305 | 4.8 | 9.7 | 0.00 | 0.00 | 0.00 | 78 | 1020.6 |
| 20260506183540 | 15 | 29 | 3.2 | 6.4 | 0.00 | 0.00 | 0.00 | 78 | 1020.5 |
| 20260506183040 | 15 | 11 | 3.2 | 6.4 | 0.00 | 0.00 | 0.00 | 78 | 1020.5 |
| 20260506182540 | 15 | 112 | 1.6 | 6.4 | 0.00 | 0.00 | 0.00 | 78 | 1020.6 |
| 20260506182041 | 15 | 1 | 3.2 | 4.8 | 0.00 | 0.00 | 0.00 | 80 | 1020.6 |
| 20260506181540 | 15 | 42 | 3.2 | 6.4 | 0.00 | 0.00 | 0.00 | 79 | 1020.6 |
| 20260506181039 | 15 | 259 | 3.2 | 8.0 | 0.00 | 0.00 | 0.00 | 80 | 1020.6 |
| 20260506180539 | 15 | 1 | 4.8 | 8.0 | 0.00 | 0.00 | 0.00 | 80 | 1020.6 |
| 20260506180041 | 15 | 316 | 3.2 | 8.0 | 0.00 | 0.00 | 0.00 | 79 | 1020.5 |
| 20260506175540 | 14 | 338 | 3.2 | 9.7 | 0.00 | 0.00 | 0.00 | 80 | 1020.5 |
| 20260506175039 | 14 | 342 | 4.8 | 9.7 | 0.00 | 0.00 | 0.00 | 80 | 1020.6 |
| 20260506174539 | 15 | 324 | 3.2 | 8.0 | 0.00 | 0.00 | 0.00 | 79 | 1020.5 |
| 20260506174533 | 15 | 275 | 3.2 | 6.4 | 0.00 | 0.00 | 0.00 | 80 | 1020.5 |
| 20260506173540 | 14 | 18 | 3.2 | 6.4 | 0.00 | 0.00 | 0.00 | 80 | 1020.4 |
| 20260506173040 | 14 | 10 | 3.2 | 9.7 | 0.00 | 0.00 | 0.00 | 80 | 1020.4 |
| 20260506172540 | 14 | 32 | 3.2 | 9.7 | 0.00 | 0.00 | 0.00 | 80 | 1020.3 |
| 20260506172039 | 14 | 41 | 3.2 | 8.0 | 0.00 | 0.00 | 0.00 | 80 | 1020.3 |
| 20260506171539 | 14 | 28 | 4.8 | 9.7 | 0.00 | 0.00 | 0.00 | 80 | 1020.3 |
| 20260506171039 | 14 | 49 | 4.8 | 9.7 | 0.00 | 0.00 | 0.00 | 80 | 1020.3 |
| 20260506170540 | 14 | 9 | 6.4 | 12.9 | 0.00 | 0.00 | 0.00 | 81 | 1020.3 |
| 20260506170040 | 14 | 310 | 6.4 | 12.9 | 0.00 | 0.00 | 0.00 | 82 | 1020.3 |
| 20260506165542 | 14 | 3 | 6.4 | 11.3 | 0.00 | 0.00 | 0.00 | 81 | 1020.4 |
| 20260506165042 | 14 | 9 | 4.8 | 9.7 | 0.00 | 0.00 | 0.00 | 81 | 1020.4 |
| 20260506164541 | 14 | 334 | 4.8 | 9.7 | 0.00 | 0.00 | 0.00 | 81 | 1020.3 |
| 20260506164040 | 14 | 352 | 4.8 | 9.7 | 0.00 | 0.00 | 0.00 | 81 | 1020.3 |
| 20260506163539 | 14 | 322 | 4.8 | 12.9 | 0.00 | 0.00 | 0.00 | 82 | 1020.2 |
| 20260506163041 | 14 | 340 | 3.2 | 12.9 | 0.00 | 0.00 | 0.00 | 81 | 1020.4 |
| 20260506162541 | 14 | 25 | 3.2 | 6.4 | 0.00 | 0.00 | 0.00 | 81 | 1020.2 |
| 20260506162041 | 14 | 357 | 3.2 | 6.4 | 0.00 | 0.00 | 0.00 | 81 | 1020.2 |
| 20260506161541 | 13 | 343 | 3.2 | 9.7 | 0.00 | 0.00 | 0.00 | 82 | 1020.1 |
| 20260506161041 | 13 | 242 | 3.2 | 9.7 | 0.00 | 0.00 | 0.00 | 82 | 1020.1 |
| 20260506160541 | 13 | 349 | 3.2 | 6.4 | 0.00 | 0.00 | 0.00 | 82 | 1020.1 |
| 20260506160042 | 13 | 344 | 3.2 | 6.4 | 0.00 | 0.00 | 0.00 | 82 | 1019.9 |
| 20260506155541 | 13 | 5 | 3.2 | 6.4 | 0.00 | 0.00 | 0.00 | 82 | 1019.8 |
| 20260506155041 | 13 | 155 | 1.6 | 6.4 | 0.00 | 0.00 | 0.00 | 82 | 1019.8 |
| 20260506154541 | 13 | 29 | 3.2 | 8.0 | 0.00 | 0.00 | 0.00 | 83 | 1019.6 |
| 20260506154040 | 13 | 105 | 1.6 | 8.0 | 0.00 | 0.00 | 0.00 | 84 | 1019.7 |
| 20260506153806 | 13 | 145 | 3.2 | 9.7 | 0.00 | 0.00 | 0.00 | 85 | 1019.9 |
| 20260506153041 | 13 | 35 | 4.8 | 9.7 | 0.00 | 0.00 | 0.00 | 85 | 1020.2 |
| 20260506152541 | 13 | 338 | 4.8 | 9.7 | 0.00 | 0.00 | 0.00 | 85 | 1020.3 |
| 20260506152041 | 13 | 37 | 6.4 | 11.3 | 0.00 | 0.00 | 0.00 | 86 | 1020.3 |
| 20260506151541 | 12 | 299 | 8.0 | 14.5 | 0.00 | 0.00 | 0.00 | 86 | 1020.3 |
| 20260506151041 | 12 | 315 | 6.4 | 14.5 | 0.00 | 0.00 | 0.00 | 86 | 1020.3 |
| 20260506150804 | 12 | 353 | 8.0 | 14.5 | 0.00 | 0.00 | 0.00 | 86 | 1020.3 |
| 20260506150041 | 12 | 11 | 8.0 | 14.5 | 0.00 | 0.00 | 0.00 | 86 | 1020.3 |
| 20260506145540 | 12 | 330 | 6.4 | 14.5 | 0.00 | 0.00 | 0.00 | 86 | 1020.2 |
| 20260506145041 | 13 | 333 | 6.4 | 14.5 | 0.00 | 0.00 | 0.00 | 85 | 1020.1 |
| 20260506144541 | 13 | 350 | 8.0 | 14.5 | 0.00 | 0.00 | 0.00 | 85 | 1020.0 |
| 20260506144041 | 13 | 343 | 6.4 | 14.5 | 0.00 | 0.00 | 0.00 | 86 | 1020.1 |
| 20260506143800 | 13 | 348 | 6.4 | 11.3 | 0.00 | 0.00 | 0.00 | 86 | 1020.0 |
| 20260506143040 | 13 | 356 | 6.4 | 11.3 | 0.00 | 0.00 | 0.00 | 86 | 1019.9 |
| 20260506142537 | 13 | 325 | 6.4 | 9.7 | 0.00 | 0.00 | 0.00 | 86 | 1019.7 |
| 20260506142038 | 13 | 321 | 4.8 | 9.7 | 0.00 | 0.00 | 0.00 | 86 | 1019.6 |
| 20260506141538 | 13 | 33 | 6.4 | 11.3 | 0.00 | 0.00 | 0.00 | 87 | 1019.5 |
| 20260506141037 | 13 | 9 | 6.4 | 11.3 | 0.00 | 0.00 | 0.00 | 86 | 1019.5 |
| 20260506140538 | 13 | 333 | 4.8 | 9.7 | 0.00 | 0.00 | 0.00 | 86 | 1019.5 |
| 20260506140308 | 13 | 315 | 4.8 | 11.3 | 0.00 | 0.00 | 0.00 | 86 | 1019.6 |
| 20260506135539 | 13 | 333 | 4.8 | 11.3 | 0.00 | 0.00 | 0.00 | 86 | 1019.5 |
| 20260506135039 | 13 | 320 | 3.2 | 11.3 | 0.00 | 0.00 | 0.00 | 86 | 1019.4 |
| 20260506134538 | 13 | 302 | 4.8 | 8.0 | 0.00 | 0.00 | 0.00 | 86 | 1019.4 |
| 20260506134039 | 13 | 336 | 4.8 | 9.7 | 0.00 | 0.00 | 0.00 | 86 | 1019.3 |
| 20260506133539 | 13 | 309 | 4.8 | 9.7 | 0.00 | 0.00 | 0.00 | 86 | 1019.3 |
| 20260506133038 | 13 | 1 | 3.2 | 6.4 | 0.00 | 0.00 | 0.00 | 86 | 1019.3 |
| 20260506132538 | 13 | 301 | 3.2 | 6.4 | 0.00 | 0.00 | 0.00 | 86 | 1019.2 |
| 20260506132038 | 13 | 322 | 3.2 | 6.4 | 0.00 | 0.00 | 0.00 | 86 | 1019.1 |
| 20260506131535 | 13 | 308 | 3.2 | 6.4 | 0.00 | 0.00 | 0.00 | 86 | 1019.1 |
| 20260506131032 | 13 | 302 | 1.6 | 4.8 | 0.00 | 0.00 | 0.00 | 86 | 1019.0 |
| 20260506130532 | 13 | 0 | 1.6 | 4.8 | 0.00 | 0.00 | 0.00 | 86 | 1019.0 |
| 20260506130032 | 13 | 0 | 1.6 | 4.8 | 0.00 | 0.00 | 0.00 | 86 | 1019.0 |
| 20260506125530 | 13 | 316 | 3.2 | 8.0 | 0.00 | 0.00 | 0.00 | 86 | 1018.9 |
| 20260506125029 | 13 | 290 | 4.8 | 8.0 | 0.00 | 0.00 | 0.00 | 86 | 1018.9 |
| 20260506124531 | 13 | 308 | 3.2 | 8.0 | 0.00 | 0.00 | 0.00 | 86 | 1018.8 |
| 20260506124255 | 13 | 322 | 3.2 | 6.4 | 0.00 | 0.00 | 0.00 | 85 | 1018.8 |
| 20260506123531 | 13 | 326 | 3.2 | 8.0 | 0.00 | 0.00 | 0.00 | 86 | 1018.8 |
| 20260506123030 | 13 | 317 | 4.8 | 8.0 | 0.00 | 0.00 | 0.00 | 85 | 1018.8 |
| 20260506122757 | 13 | 320 | 4.8 | 11.3 | 0.00 | 0.00 | 0.00 | 85 | 1018.9 |
| 20260506122258 | 13 | 311 | 6.4 | 11.3 | 0.00 | 0.00 | 0.00 | 85 | 1018.9 |
| 20260506121528 | 13 | 325 | 6.4 | 11.3 | 0.00 | 0.00 | 0.00 | 85 | 1018.9 |
| 20260506121255 | 13 | 319 | 4.8 | 12.9 | 0.00 | 0.00 | 0.00 | 85 | 1018.9 |
| 20260506120527 | 13 | 300 | 6.4 | 12.9 | 0.00 | 0.00 | 0.00 | 85 | 1018.8 |
| 20260506120026 | 13 | 320 | 6.4 | 12.9 | 0.00 | 0.00 | 0.00 | 85 | 1018.8 |
| 20260506115527 | 13 | 335 | 4.8 | 11.3 | 0.00 | 0.00 | 0.00 | 85 | 1018.7 |
| 20260506115255 | 13 | 308 | 4.8 | 9.7 | 0.00 | 0.00 | 0.00 | 85 | 1018.7 |
| 20260506114526 | 13 | 318 | 4.8 | 9.7 | 0.00 | 0.00 | 0.00 | 85 | 1018.6 |
| 20260506114026 | 13 | 326 | 6.4 | 11.3 | 0.00 | 0.00 | 0.00 | 85 | 1018.5 |
| 20260506113527 | 13 | 308 | 6.4 | 11.3 | 0.00 | 0.00 | 0.00 | 85 | 1018.5 |
| 20260506113026 | 13 | 293 | 4.8 | 9.7 | 0.00 | 0.00 | 0.00 | 84 | 1018.5 |
| 20260506112527 | 13 | 326 | 4.8 | 8.0 | 0.00 | 0.00 | 0.00 | 84 | 1018.5 |
| 20260506112252 | 13 | 327 | 4.8 | 11.3 | 0.00 | 0.00 | 0.00 | 84 | 1018.4 |
| 20260506111753 | 13 | 305 | 4.8 | 11.3 | 0.00 | 0.00 | 0.00 | 84 | 1018.4 |
| 20260506111027 | 13 | 293 | 6.4 | 11.3 | 0.00 | 0.00 | 0.00 | 84 | 1018.3 |
| 20260506110530 | 13 | 328 | 6.4 | 11.3 | 0.00 | 0.00 | 0.00 | 84 | 1018.3 |